Location: Dehesa de la Cepeda
(40.6574°N, 4.3013°W)
Time: 09:16:52
(UTC+00:00)

SL-8 Rocket - Pass Details

Date: 05 July 2020
Orbit: 957 x 990 km, 82.9° (Epoch: 07 August)

Event Time Altitude Azimuth Distance (km) Brightness Sun altitude
Exits shadow 23:30:59 58° 136° (SE) 1,110 3.9 -25.6°
Maximum altitude 23:31:54 66° 93° (E) 1,046 4.0 -25.6°
Drops below altitude 10° 23:38:00 10° 13° (NNE) 2,699 7.2 -25.9°
Sets 23:40:31 0° 11° (N) 3,648 8.1 -25.9°
